Back to catalog

FENGYUN 1C DEB

AlivePO
NORAD 37444·DEBRIS·🇨🇳 China

Launched May 10, 1999 from Taiyuan Satellite Launch Center

Loading…

Next Passes (next 24 hours)

TLE

FreshSource: Space-Track

Epoch: Sep 14, 2026, 02:24 UTC

1 37444U 99025EHN 26257.10025169  .00002159  00000-0  39927-3 0  9993
2 37444  99.0812   3.6896 0237648 245.0366 112.5970 14.50066103691390

Track FENGYUN 1C DEB in real time with AllMySat

Download on the App Store